Track COSMOS 2492 (GLONASS) now! COSMOS 2492 (GLONASS) is classified as:
1 39620U 14012A 24283.20017788 -.00000038 00000-0 00000-0 0 9992 2 39620 65.6240 334.7935 0012869 308.9040 51.0527 2.13103185 82115